| time (UTC) | temp C | wind direction | speed KPH | gust KPH | rain 1hr cm | rain 24hr cm | rain mn cm | humidity % | barometer mb |
| 20260905223535 | 20 | 327 | 6.4 | 14.5 | 0.00 | 0.18 | 0.00 | 63 | 1022.9 |
| 20260905223059 | 20 | 323 | 3.2 | 11.3 | 0.00 | 0.18 | 0.00 | 63 | 1022.7 |
| 20260905222536 | 20 | 306 | 4.8 | 11.3 | 0.00 | 0.18 | 0.00 | 63 | 1022.7 |
| 20260905222036 | 20 | 329 | 3.2 | 11.3 | 0.00 | 0.18 | 0.00 | 63 | 1022.7 |
| 20260905221604 | 20 | 285 | 1.6 | 14.5 | 0.00 | 0.18 | 0.00 | 62 | 1022.6 |
| 20260905221037 | 20 | 317 | 3.2 | 14.5 | 0.00 | 0.18 | 0.00 | 62 | 1022.5 |
| 20260905220536 | 20 | 308 | 4.8 | 14.5 | 0.00 | 0.18 | 0.00 | 61 | 1022.5 |
| 20260905220108 | 20 | 306 | 4.8 | 16.1 | 0.00 | 0.18 | 0.00 | 61 | 1022.5 |
| 20260905215536 | 20 | 323 | 6.4 | 17.7 | 0.00 | 0.18 | 0.18 | 61 | 1022.4 |
| 20260905215059 | 20 | 257 | 4.8 | 17.7 | 0.00 | 0.18 | 0.18 | 61 | 1022.4 |
| 20260905214602 | 20 | 274 | 4.8 | 17.7 | 0.00 | 0.18 | 0.18 | 61 | 1022.4 |
| 20260905214036 | 20 | 267 | 6.4 | 14.5 | 0.00 | 0.18 | 0.18 | 60 | 1022.3 |
| 20260905213536 | 20 | 346 | 4.8 | 17.7 | 0.00 | 0.18 | 0.18 | 60 | 1022.3 |
| 20260905213100 | 21 | 306 | 8.0 | 20.9 | 0.00 | 0.18 | 0.18 | 60 | 1022.3 |
| 20260905212536 | 21 | 313 | 9.7 | 20.9 | 0.00 | 0.18 | 0.18 | 59 | 1022.2 |
| 20260905212034 | 21 | 237 | 8.0 | 20.9 | 0.00 | 0.18 | 0.18 | 59 | 1022.2 |
| 20260905211628 | 21 | 205 | 8.0 | 20.9 | 0.00 | 0.18 | 0.18 | 59 | 1022.0 |
| 20260905211036 | 21 | 277 | 8.0 | 20.9 | 0.00 | 0.18 | 0.18 | 59 | 1022.0 |
| 20260905210535 | 21 | 243 | 8.0 | 20.9 | 0.00 | 0.18 | 0.18 | 59 | 1022.1 |
| 20260905210115 | 21 | 216 | 9.7 | 22.5 | 0.00 | 0.18 | 0.18 | 58 | 1022.1 |
| 20260905205534 | 21 | 343 | 9.7 | 24.1 | 0.00 | 0.18 | 0.18 | 58 | 1022.1 |
| 20260905205037 | 21 | 232 | 9.7 | 24.1 | 0.00 | 0.18 | 0.18 | 58 | 1022.0 |
| 20260905204606 | 21 | 267 | 9.7 | 19.3 | 0.00 | 0.18 | 0.18 | 57 | 1022.1 |
| 20260905204036 | 21 | 274 | 11.3 | 19.3 | 0.00 | 0.18 | 0.18 | 57 | 1022.0 |
| 20260905203536 | 21 | 268 | 8.0 | 17.7 | 0.00 | 0.18 | 0.18 | 58 | 1021.9 |
| 20260905203118 | 21 | 260 | 6.4 | 19.3 | 0.00 | 0.18 | 0.18 | 57 | 1022.0 |
| 20260905202538 | 21 | 236 | 8.0 | 19.3 | 0.00 | 0.18 | 0.18 | 57 | 1021.9 |
| 20260905202035 | 21 | 228 | 9.7 | 19.3 | 0.00 | 0.18 | 0.18 | 57 | 1021.9 |
| 20260905201600 | 21 | 245 | 6.4 | 16.1 | 0.00 | 0.18 | 0.18 | 58 | 1022.0 |
| 20260905201034 | 21 | 208 | 6.4 | 12.9 | 0.00 | 0.18 | 0.18 | 58 | 1021.9 |
| 20260905200536 | 21 | 216 | 4.8 | 17.7 | 0.00 | 0.18 | 0.18 | 58 | 1021.8 |
| 20260905195541 | 21 | 245 | 8.0 | 20.9 | 0.00 | 0.18 | 0.18 | 58 | 1021.8 |
| 20260905195037 | 21 | 266 | 6.4 | 20.9 | 0.00 | 0.18 | 0.18 | 59 | 1021.8 |
| 20260905194556 | 21 | 246 | 6.4 | 17.7 | 0.00 | 0.18 | 0.18 | 59 | 1021.8 |
| 20260905194036 | 21 | 251 | 6.4 | 20.9 | 0.00 | 0.18 | 0.18 | 59 | 1021.7 |
| 20260905193537 | 21 | 238 | 8.0 | 20.9 | 0.00 | 0.18 | 0.18 | 59 | 1021.7 |
| 20260905193057 | 21 | 234 | 8.0 | 17.7 | 0.00 | 0.18 | 0.18 | 59 | 1021.7 |
| 20260905192535 | 21 | 277 | 6.4 | 20.9 | 0.00 | 0.18 | 0.18 | 59 | 1021.7 |
| 20260905192037 | 21 | 266 | 6.4 | 20.9 | 0.00 | 0.18 | 0.18 | 60 | 1021.7 |
| 20260905191557 | 21 | 236 | 4.8 | 14.5 | 0.00 | 0.18 | 0.18 | 60 | 1021.7 |
| 20260905191037 | 21 | 300 | 6.4 | 14.5 | 0.00 | 0.18 | 0.18 | 59 | 1021.6 |
| 20260905190537 | 21 | 304 | 4.8 | 11.3 | 0.00 | 0.18 | 0.18 | 59 | 1021.6 |
| 20260905190053 | 21 | 228 | 3.2 | 14.5 | 0.00 | 0.18 | 0.18 | 59 | 1021.6 |
| 20260905185538 | 21 | 284 | 4.8 | 14.5 | 0.00 | 0.18 | 0.18 | 59 | 1021.6 |
| 20260905185036 | 21 | 237 | 4.8 | 14.5 | 0.00 | 0.18 | 0.18 | 58 | 1021.5 |
| 20260905184559 | 21 | 219 | 4.8 | 16.1 | 0.00 | 0.18 | 0.18 | 58 | 1021.3 |
| 20260905184036 | 21 | 295 | 6.4 | 16.1 | 0.00 | 0.18 | 0.18 | 58 | 1021.3 |
| 20260905183536 | 21 | 306 | 3.2 | 16.1 | 0.00 | 0.18 | 0.18 | 57 | 1021.1 |
| 20260905183101 | 21 | 267 | 6.4 | 16.1 | 0.00 | 0.18 | 0.18 | 57 | 1021.1 |
| 20260905182535 | 21 | 317 | 6.4 | 16.1 | 0.00 | 0.18 | 0.18 | 57 | 1021.0 |
| 20260905182037 | 22 | 342 | 4.8 | 16.1 | 0.00 | 0.18 | 0.18 | 56 | 1020.9 |
| 20260905181610 | 22 | 255 | 6.4 | 16.1 | 0.00 | 0.18 | 0.18 | 56 | 1020.8 |
| 20260905181037 | 22 | 209 | 8.0 | 16.1 | 0.00 | 0.18 | 0.18 | 56 | 1020.8 |
| 20260905180536 | 22 | 270 | 6.4 | 17.7 | 0.00 | 0.18 | 0.18 | 56 | 1020.8 |
| 20260905180057 | 22 | 339 | 8.0 | 20.9 | 0.00 | 0.18 | 0.18 | 56 | 1020.8 |
| 20260905175537 | 22 | 280 | 4.8 | 20.9 | 0.00 | 0.18 | 0.18 | 55 | 1020.6 |
| 20260905175038 | 22 | 258 | 8.0 | 20.9 | 0.00 | 0.18 | 0.18 | 55 | 1020.5 |
| 20260905174600 | 22 | 266 | 8.0 | 19.3 | 0.00 | 0.18 | 0.18 | 55 | 1020.4 |
| 20260905174038 | 22 | 238 | 6.4 | 24.1 | 0.00 | 0.18 | 0.18 | 54 | 1020.4 |
| 20260905173540 | 22 | 240 | 12.9 | 24.1 | 0.00 | 0.18 | 0.18 | 54 | 1020.3 |
| 20260905173058 | 22 | 269 | 8.0 | 20.9 | 0.00 | 0.18 | 0.18 | 54 | 1020.3 |
| 20260905172536 | 22 | 286 | 8.0 | 27.4 | 0.00 | 0.18 | 0.18 | 54 | 1020.2 |
| 20260905172038 | 22 | 312 | 9.7 | 27.4 | 0.00 | 0.18 | 0.18 | 53 | 1020.2 |
| 20260905171558 | 22 | 311 | 8.0 | 19.3 | 0.00 | 0.18 | 0.18 | 53 | 1020.1 |
| 20260905171036 | 22 | 309 | 6.4 | 24.1 | 0.00 | 0.18 | 0.18 | 53 | 1020.2 |
| 20260905170536 | 22 | 276 | 11.3 | 24.1 | 0.00 | 0.18 | 0.18 | 52 | 1020.1 |
| 20260905170056 | 22 | 250 | 12.9 | 25.7 | 0.00 | 0.18 | 0.18 | 52 | 1020.0 |
| 20260905165540 | 23 | 279 | 8.0 | 25.7 | 0.00 | 0.18 | 0.18 | 52 | 1019.9 |
| 20260905165037 | 23 | 311 | 12.9 | 27.4 | 0.00 | 0.18 | 0.18 | 52 | 1019.8 |
| 20260905164558 | 23 | 355 | 11.3 | 27.4 | 0.00 | 0.18 | 0.18 | 51 | 1019.8 |
| 20260905164035 | 23 | 319 | 9.7 | 27.4 | 0.00 | 0.18 | 0.18 | 51 | 1019.7 |
| 20260905163536 | 23 | 247 | 12.9 | 24.1 | 0.00 | 0.18 | 0.18 | 51 | 1019.6 |
| 20260905163102 | 23 | 239 | 12.9 | 27.4 | 0.00 | 0.18 | 0.18 | 51 | 1019.6 |
| 20260905162537 | 23 | 300 | 11.3 | 27.4 | 0.00 | 0.18 | 0.18 | 51 | 1019.5 |
| 20260905162038 | 23 | 230 | 9.7 | 24.1 | 0.00 | 0.18 | 0.18 | 50 | 1019.5 |
| 20260905161607 | 23 | 309 | 9.7 | 24.1 | 0.00 | 0.18 | 0.18 | 50 | 1019.5 |
| 20260905161036 | 23 | 297 | 6.4 | 27.4 | 0.00 | 0.18 | 0.18 | 51 | 1019.6 |
| 20260905160536 | 23 | 306 | 6.4 | 27.4 | 0.00 | 0.18 | 0.18 | 51 | 1019.5 |
| 20260905160130 | 23 | 306 | 11.3 | 27.4 | 0.00 | 0.18 | 0.18 | 50 | 1019.5 |
| 20260905155537 | 23 | 226 | 14.5 | 29.0 | 0.00 | 0.18 | 0.18 | 50 | 1019.6 |
| 20260905155035 | 23 | 278 | 9.7 | 32.2 | 0.00 | 0.18 | 0.18 | 49 | 1019.5 |
| 20260905154603 | 23 | 360 | 9.7 | 32.2 | 0.00 | 0.18 | 0.18 | 50 | 1019.5 |
| 20260905154036 | 23 | 329 | 12.9 | 27.4 | 0.00 | 0.18 | 0.18 | 49 | 1019.5 |
| 20260905153537 | 23 | 346 | 12.9 | 32.2 | 0.00 | 0.18 | 0.18 | 49 | 1019.4 |
| 20260905153059 | 23 | 242 | 11.3 | 32.2 | 0.00 | 0.18 | 0.18 | 50 | 1019.3 |
| 20260905152536 | 23 | 289 | 16.1 | 27.4 | 0.00 | 0.18 | 0.18 | 49 | 1019.4 |
| 20260905152037 | 23 | 316 | 16.1 | 27.4 | 0.00 | 0.18 | 0.18 | 50 | 1019.3 |
| 20260905151609 | 23 | 321 | 8.0 | 37.0 | 0.00 | 0.18 | 0.18 | 51 | 1019.3 |
| 20260905151036 | 23 | 273 | 11.3 | 45.1 | 0.00 | 0.18 | 0.18 | 50 | 1019.3 |
| 20260905150536 | 23 | 283 | 16.1 | 45.1 | 0.00 | 0.18 | 0.18 | 50 | 1019.3 |
| 20260905150058 | 23 | 333 | 12.9 | 30.6 | 0.00 | 0.18 | 0.18 | 50 | 1019.3 |
| 20260905145537 | 23 | 277 | 11.3 | 27.4 | 0.00 | 0.18 | 0.18 | 50 | 1019.4 |
| 20260905145036 | 23 | 334 | 12.9 | 27.4 | 0.00 | 0.18 | 0.18 | 51 | 1019.4 |
| 20260905144555 | 23 | 246 | 12.9 | 27.4 | 0.00 | 0.18 | 0.18 | 51 | 1019.4 |
| 20260905144036 | 23 | 232 | 12.9 | 24.1 | 0.00 | 0.18 | 0.18 | 51 | 1019.4 |
| 20260905143537 | 23 | 275 | 9.7 | 25.7 | 0.00 | 0.18 | 0.18 | 51 | 1019.3 |
| 20260905143058 | 23 | 222 | 11.3 | 32.2 | 0.00 | 0.18 | 0.18 | 52 | 1019.3 |
| 20260905142538 | 23 | 240 | 9.7 | 32.2 | 0.00 | 0.18 | 0.18 | 52 | 1019.3 |
| 20260905142036 | 23 | 288 | 14.5 | 33.8 | 0.00 | 0.18 | 0.18 | 52 | 1019.5 |
| 20260905141555 | 23 | 242 | 14.5 | 33.8 | 0.00 | 0.18 | 0.18 | 52 | 1019.5 |
| 20260905141036 | 23 | 275 | 14.5 | 32.2 | 0.00 | 0.18 | 0.18 | 52 | 1019.4 |
| 20260905140537 | 23 | 238 | 9.7 | 29.0 | 0.00 | 0.18 | 0.18 | 53 | 1019.5 |
| 20260905140107 | 23 | 232 | 9.7 | 27.4 | 0.00 | 0.18 | 0.18 | 53 | 1019.6 |
| 20260905135536 | 23 | 257 | 14.5 | 27.4 | 0.00 | 0.18 | 0.18 | 53 | 1019.6 |
| 20260905135037 | 23 | 325 | 12.9 | 22.5 | 0.00 | 0.18 | 0.18 | 53 | 1019.6 |
| 20260905134604 | 23 | 201 | 12.9 | 22.5 | 0.00 | 0.18 | 0.18 | 54 | 1019.6 |
| 20260905134038 | 23 | 286 | 12.9 | 29.0 | 0.00 | 0.18 | 0.18 | 53 | 1019.6 |
| 20260905133537 | 23 | 182 | 14.5 | 35.4 | 0.00 | 0.18 | 0.18 | 53 | 1019.6 |
| 20260905133100 | 23 | 244 | 14.5 | 35.4 | 0.00 | 0.18 | 0.18 | 53 | 1019.7 |
| 20260905132539 | 22 | 252 | 17.7 | 30.6 | 0.00 | 0.18 | 0.18 | 53 | 1019.7 |
| 20260905132037 | 22 | 270 | 16.1 | 32.2 | 0.00 | 0.18 | 0.18 | 54 | 1019.8 |
| 20260905131604 | 22 | 164 | 14.5 | 32.2 | 0.00 | 0.18 | 0.18 | 54 | 1019.8 |
| 20260905131036 | 22 | 277 | 19.3 | 32.2 | 0.00 | 0.18 | 0.18 | 53 | 1019.8 |
| 20260905130537 | 23 | 284 | 11.3 | 24.1 | 0.00 | 0.18 | 0.18 | 53 | 1019.8 |
| 20260905130056 | 22 | 342 | 11.3 | 24.1 | 0.00 | 0.18 | 0.18 | 53 | 1019.8 |
| 20260905125536 | 22 | 258 | 12.9 | 32.2 | 0.00 | 0.18 | 0.18 | 55 | 1019.8 |
| 20260905125036 | 22 | 317 | 14.5 | 32.2 | 0.00 | 0.18 | 0.18 | 55 | 1019.7 |
| 20260905124557 | 22 | 262 | 16.1 | 35.4 | 0.00 | 0.18 | 0.18 | 55 | 1019.7 |
| 20260905124037 | 22 | 348 | 12.9 | 35.4 | 0.00 | 0.18 | 0.18 | 56 | 1019.8 |
| 20260905123536 | 22 | 297 | 16.1 | 32.2 | 0.00 | 0.18 | 0.18 | 56 | 1019.8 |
| 20260905123103 | 22 | 298 | 17.7 | 32.2 | 0.00 | 0.18 | 0.18 | 56 | 1019.8 |
| 20260905122536 | 22 | 292 | 12.9 | 32.2 | 0.00 | 0.18 | 0.18 | 57 | 1019.7 |
| 20260905122036 | 22 | 323 | 12.9 | 32.2 | 0.00 | 0.18 | 0.18 | 58 | 1019.7 |
| 20260905121601 | 22 | 276 | 12.9 | 32.2 | 0.00 | 0.18 | 0.18 | 57 | 1019.8 |
| 20260905121036 | 22 | 335 | 14.5 | 29.0 | 0.00 | 0.18 | 0.18 | 57 | 1019.7 |
| 20260905120535 | 22 | 270 | 8.0 | 33.8 | 0.00 | 0.18 | 0.18 | 58 | 1019.8 |
| 20260905120117 | 21 | 209 | 14.5 | 33.8 | 0.00 | 0.18 | 0.18 | 58 | 1019.8 |
| 20260905115536 | 22 | 285 | 16.1 | 32.2 | 0.00 | 0.18 | 0.18 | 58 | 1019.9 |
| 20260905115035 | 21 | 215 | 16.1 | 30.6 | 0.00 | 0.18 | 0.18 | 58 | 1019.9 |
| 20260905114554 | 21 | 332 | 16.1 | 30.6 | 0.00 | 0.18 | 0.18 | 59 | 1019.9 |
| 20260905114035 | 21 | 286 | 17.7 | 33.8 | 0.00 | 0.18 | 0.18 | 58 | 1019.9 |
| 20260905113535 | 21 | 340 | 16.1 | 35.4 | 0.00 | 0.18 | 0.18 | 58 | 1020.0 |
| 20260905113101 | 21 | 236 | 16.1 | 37.0 | 0.00 | 0.18 | 0.18 | 58 | 1020.0 |
| 20260905112537 | 21 | 307 | 16.1 | 37.0 | 0.00 | 0.18 | 0.18 | 57 | 1019.9 |
| 20260905112037 | 21 | 314 | 20.9 | 37.0 | 0.00 | 0.18 | 0.18 | 59 | 1020.0 |
| 20260905111613 | 21 | 306 | 12.9 | 30.6 | 0.00 | 0.18 | 0.18 | 60 | 1019.8 |
| 20260905111037 | 21 | 216 | 11.3 | 35.4 | 0.00 | 0.18 | 0.18 | 60 | 1020.0 |
| 20260905110535 | 21 | 225 | 12.9 | 35.4 | 0.00 | 0.18 | 0.18 | 61 | 1019.9 |
| 20260905110100 | 21 | 280 | 9.7 | 25.7 | 0.00 | 0.18 | 0.18 | 61 | 1019.9 |
| 20260905105536 | 21 | 275 | 9.7 | 27.4 | 0.00 | 0.18 | 0.18 | 62 | 1020.0 |
| 20260905105036 | 21 | 319 | 9.7 | 38.6 | 0.00 | 0.18 | 0.18 | 64 | 1020.0 |
| 20260905104554 | 21 | 239 | 12.9 | 38.6 | 0.00 | 0.18 | 0.18 | 64 | 1019.9 |
| 20260905104036 | 20 | 251 | 17.7 | 38.6 | 0.00 | 0.18 | 0.18 | 64 | 1019.9 |
| 20260905103537 | 20 | 238 | 12.9 | 32.2 | 0.00 | 0.18 | 0.18 | 65 | 1019.9 |
| 20260905103059 | 20 | 294 | 16.1 | 40.2 | 0.00 | 0.18 | 0.18 | 65 | 1019.9 |
| 20260905102536 | 20 | 292 | 20.9 | 40.2 | 0.00 | 0.18 | 0.18 | 65 | 1019.9 |
| 20260905102035 | 20 | 324 | 22.5 | 40.2 | 0.00 | 0.18 | 0.18 | 65 | 1020.0 |
| 20260905101555 | 20 | 13 | 16.1 | 32.2 | 0.00 | 0.18 | 0.18 | 66 | 1020.0 |
| 20260905101036 | 20 | 303 | 12.9 | 27.4 | 0.00 | 0.18 | 0.18 | 66 | 1019.9 |
| 20260905100537 | 20 | 267 | 6.4 | 27.4 | 0.00 | 0.18 | 0.18 | 67 | 1020.2 |
| 20260905100059 | 20 | 288 | 6.4 | 24.1 | 0.00 | 0.18 | 0.18 | 68 | 1019.8 |
| 20260905095536 | 19 | 260 | 6.4 | 27.4 | 0.00 | 0.18 | 0.18 | 69 | 1020.0 |
| 20260905095035 | 19 | 336 | 12.9 | 27.4 | 0.00 | 0.18 | 0.18 | 69 | 1020.1 |
| 20260905094556 | 19 | 30 | 11.3 | 29.0 | 0.00 | 0.18 | 0.18 | 70 | 1020.1 |
| 20260905094037 | 18 | 227 | 14.5 | 29.0 | 0.00 | 0.18 | 0.18 | 70 | 1020.1 |
| 20260905093537 | 18 | 317 | 14.5 | 29.0 | 0.00 | 0.18 | 0.18 | 70 | 1020.1 |
| 20260905093059 | 18 | 269 | 11.3 | 27.4 | 0.00 | 0.18 | 0.18 | 70 | 1020.1 |
| 20260905092538 | 18 | 340 | 8.0 | 20.9 | 0.00 | 0.18 | 0.18 | 71 | 1020.2 |
| 20260905092035 | 18 | 254 | 9.7 | 20.9 | 0.00 | 0.18 | 0.18 | 71 | 1020.1 |
| 20260905091623 | 18 | 5 | 6.4 | 20.9 | 0.00 | 0.18 | 0.18 | 72 | 1020.2 |
| 20260905091036 | 17 | 206 | 3.2 | 14.5 | 0.00 | 0.18 | 0.18 | 73 | 1020.2 |
| 20260905090536 | 17 | 286 | 4.8 | 14.5 | 0.00 | 0.18 | 0.18 | 74 | 1020.4 |
| 20260905090119 | 17 | 248 | 6.4 | 14.5 | 0.00 | 0.18 | 0.18 | 75 | 1020.1 |
| 20260905085537 | 17 | 286 | 4.8 | 14.5 | 0.00 | 0.18 | 0.18 | 75 | 1020.2 |
| 20260905085034 | 17 | 254 | 4.8 | 14.5 | 0.00 | 0.18 | 0.18 | 75 | 1020.2 |
| 20260905084608 | 17 | 300 | 3.2 | 14.5 | 0.00 | 0.18 | 0.18 | 75 | 1020.2 |
| 20260905084037 | 17 | 297 | 8.0 | 14.5 | 0.00 | 0.18 | 0.18 | 74 | 1020.2 |
| 20260905083535 | 17 | 301 | 3.2 | 14.5 | 0.00 | 0.18 | 0.18 | 74 | 1020.1 |
| 20260905083057 | 17 | 226 | 3.2 | 14.5 | 0.00 | 0.18 | 0.18 | 73 | 1020.5 |
| 20260905082536 | 17 | 292 | 4.8 | 14.5 | 0.00 | 0.18 | 0.18 | 72 | 1020.6 |
| 20260905082034 | 17 | 220 | 3.2 | 11.3 | 0.00 | 0.18 | 0.18 | 72 | 1020.8 |
| 20260905081555 | 17 | 277 | 1.6 | 11.3 | 0.00 | 0.18 | 0.18 | 70 | 1020.7 |
| 20260905081035 | 17 | 182 | 3.2 | 11.3 | 0.00 | 0.18 | 0.18 | 70 | 1020.8 |
| 20260905080538 | 17 | 209 | 6.4 | 14.5 | 0.00 | 0.18 | 0.18 | 69 | 1020.8 |
| 20260905075535 | 17 | 352 | 4.8 | 14.5 | 0.00 | 0.18 | 0.18 | 69 | 1020.6 |
| 20260905075036 | 17 | 270 | 4.8 | 16.1 | 0.00 | 0.18 | 0.18 | 69 | 1020.8 |
| 20260905074600 | 17 | 259 | 3.2 | 16.1 | 0.00 | 0.18 | 0.18 | 69 | 1021.1 |
| 20260905074037 | 17 | 235 | 4.8 | 16.1 | 0.00 | 0.18 | 0.18 | 69 | 1021.1 |
| 20260905073536 | 17 | 256 | 4.8 | 12.9 | 0.00 | 0.18 | 0.18 | 68 | 1021.0 |
| 20260905073103 | 17 | 283 | 6.4 | 12.9 | 0.00 | 0.18 | 0.18 | 68 | 1021.2 |
| 20260905072536 | 17 | 304 | 4.8 | 12.9 | 0.00 | 0.18 | 0.18 | 68 | 1021.0 |
| 20260905072036 | 17 | 306 | 6.4 | 14.5 | 0.00 | 0.18 | 0.18 | 68 | 1021.0 |
| 20260905071554 | 17 | 225 | 4.8 | 14.5 | 0.00 | 0.18 | 0.18 | 68 | 1021.0 |
| 20260905071035 | 17 | 306 | 6.4 | 14.5 | 0.00 | 0.18 | 0.18 | 67 | 1020.7 |
| 20260905070536 | 17 | 298 | 4.8 | 14.5 | 0.00 | 0.18 | 0.18 | 68 | 1020.5 |
| 20260905070114 | 17 | 275 | 4.8 | 14.5 | 0.00 | 0.18 | 0.18 | 68 | 1020.5 |
| 20260905065538 | 17 | 299 | 6.4 | 14.5 | 0.00 | 0.18 | 0.18 | 68 | 1020.6 |
| 20260905065037 | 17 | 293 | 4.8 | 16.1 | 0.00 | 0.18 | 0.18 | 67 | 1020.4 |
| 20260905064558 | 17 | 313 | 6.4 | 17.7 | 0.00 | 0.18 | 0.18 | 67 | 1020.7 |
| 20260905064038 | 17 | 288 | 8.0 | 19.3 | 0.00 | 0.18 | 0.18 | 66 | 1020.7 |
| 20260905063535 | 17 | 281 | 9.7 | 19.3 | 0.00 | 0.18 | 0.18 | 65 | 1020.7 |
| 20260905063106 | 17 | 346 | 9.7 | 16.1 | 0.00 | 0.18 | 0.18 | 64 | 1020.4 |
| 20260905062536 | 18 | 323 | 8.0 | 27.4 | 0.00 | 0.18 | 0.18 | 64 | 1020.4 |
| 20260905062035 | 18 | 321 | 11.3 | 27.4 | 0.00 | 0.18 | 0.18 | 62 | 1020.2 |
| 20260905061619 | 18 | 324 | 9.7 | 33.8 | 0.00 | 0.18 | 0.18 | 61 | 1020.1 |
| 20260905061035 | 18 | 288 | 14.5 | 33.8 | 0.00 | 0.18 | 0.18 | 60 | 1019.7 |
| 20260905060539 | 19 | 304 | 11.3 | 33.8 | 0.00 | 0.18 | 0.18 | 59 | 1019.7 |
| 20260905060116 | 19 | 336 | 12.9 | 33.8 | 0.00 | 0.18 | 0.18 | 58 | 1019.5 |
| 20260905055535 | 19 | 5 | 9.7 | 20.9 | 0.00 | 0.18 | 0.18 | 58 | 1019.3 |
| 20260905055036 | 19 | 288 | 9.7 | 22.5 | 0.00 | 0.18 | 0.18 | 58 | 1018.7 |
| 20260905054559 | 19 | 47 | 9.7 | 27.4 | 0.00 | 0.18 | 0.18 | 59 | 1018.6 |
| 20260905054036 | 19 | 329 | 11.3 | 27.4 | 0.00 | 0.18 | 0.18 | 59 | 1018.5 |
| 20260905053537 | 19 | 285 | 11.3 | 27.4 | 0.00 | 0.18 | 0.18 | 59 | 1018.3 |
| 20260905053057 | 19 | 328 | 8.0 | 24.1 | 0.00 | 0.18 | 0.18 | 60 | 1018.1 |
| 20260905052540 | 19 | 286 | 9.7 | 24.1 | 0.00 | 0.18 | 0.18 | 61 | 1018.0 |
| 20260905052039 | 19 | 272 | 6.4 | 30.6 | 0.00 | 0.18 | 0.18 | 62 | 1017.7 |
| 20260905051554 | 19 | 291 | 12.9 | 30.6 | 0.00 | 0.18 | 0.18 | 62 | 1017.8 |
| 20260905051036 | 18 | 278 | 11.3 | 25.7 | 0.00 | 0.18 | 0.18 | 63 | 1017.4 |
| 20260905050536 | 18 | 347 | 8.0 | 20.9 | 0.00 | 0.18 | 0.18 | 65 | 1017.4 |
| 20260905050054 | 18 | 281 | 6.4 | 20.9 | 0.00 | 0.18 | 0.18 | 65 | 1017.3 |
| 20260905045535 | 18 | 320 | 6.4 | 20.9 | 0.00 | 0.18 | 0.18 | 66 | 1017.2 |
| 20260905045037 | 18 | 340 | 6.4 | 20.9 | 0.00 | 0.18 | 0.18 | 66 | 1016.9 |
| 20260905044601 | 18 | 313 | 8.0 | 24.1 | 0.00 | 0.18 | 0.18 | 66 | 1016.7 |
| 20260905044036 | 18 | 303 | 11.3 | 24.1 | 0.03 | 0.18 | 0.18 | 68 | 1016.5 |
| 20260905043535 | 18 | 321 | 9.7 | 20.9 | 0.03 | 0.18 | 0.18 | 70 | 1016.2 |
| 20260905043058 | 18 | 22 | 8.0 | 19.3 | 0.03 | 0.18 | 0.18 | 72 | 1016.6 |
| 20260905042535 | 18 | 292 | 8.0 | 17.7 | 0.03 | 0.18 | 0.18 | 72 | 1016.8 |
| 20260905042035 | 18 | 263 | 4.8 | 22.5 | 0.05 | 0.18 | 0.18 | 72 | 1017.2 |
| 20260905041601 | 18 | 336 | 9.7 | 22.5 | 0.08 | 0.18 | 0.18 | 72 | 1017.1 |
| 20260905041035 | 18 | 283 | 8.0 | 19.3 | 0.08 | 0.18 | 0.18 | 72 | 1016.9 |
| 20260905040535 | 18 | 347 | 8.0 | 24.1 | 0.08 | 0.18 | 0.18 | 72 | 1016.5 |
| 20260905040103 | 18 | 301 | 8.0 | 24.1 | 0.08 | 0.18 | 0.18 | 71 | 1016.4 |
| 20260905035535 | 18 | 344 | 6.4 | 22.5 | 0.08 | 0.18 | 0.18 | 72 | 1016.6 |
| 20260905035038 | 18 | 337 | 9.7 | 22.5 | 0.08 | 0.18 | 0.18 | 73 | 1016.2 |
| 20260905034611 | 18 | 304 | 9.7 | 22.5 | 0.13 | 0.18 | 0.18 | 74 | 1016.1 |
| 20260905034040 | 19 | 307 | 11.3 | 20.9 | 0.15 | 0.15 | 0.15 | 76 | 1016.2 |
| 20260905033535 | 19 | 257 | 6.4 | 14.5 | 0.15 | 0.15 | 0.15 | 76 | 1016.4 |
| 20260905033101 | 19 | 295 | 4.8 | 32.2 | 0.15 | 0.15 | 0.15 | 75 | 1015.8 |
| 20260905032536 | 20 | 314 | 12.9 | 32.2 | 0.15 | 0.15 | 0.15 | 73 | 1015.3 |
| 20260905032035 | 20 | 313 | 16.1 | 32.2 | 0.13 | 0.13 | 0.13 | 72 | 1015.3 |
| 20260905031559 | 21 | 312 | 9.7 | 32.2 | 0.08 | 0.08 | 0.08 | 72 | 1015.4 |
| 20260905031035 | 21 | 355 | 12.9 | 24.1 | 0.08 | 0.08 | 0.08 | 74 | 1015.3 |
| 20260905030535 | 21 | 301 | 12.9 | 24.1 | 0.08 | 0.08 | 0.08 | 74 | 1014.7 |
| 20260905025535 | 22 | 275 | 3.2 | 30.6 | 0.08 | 0.08 | 0.08 | 68 | 1013.8 |
| 20260905025036 | 22 | 281 | 8.0 | 30.6 | 0.08 | 0.08 | 0.08 | 63 | 1013.9 |
| 20260905024603 | 24 | 303 | 14.5 | 30.6 | 0.03 | 0.03 | 0.03 | 55 | 1014.1 |
| 20260905024036 | 24 | 285 | 4.8 | 12.9 | 0.00 | 0.00 | 0.00 | 53 | 1013.9 |
| 20260905023535 | 23 | 300 | 4.8 | 12.9 | 0.00 | 0.00 | 0.00 | 53 | 1013.4 |
| 20260905023054 | 23 | 314 | 4.8 | 12.9 | 0.00 | 0.00 | 0.00 | 53 | 1013.4 |
| 20260905022536 | 23 | 304 | 4.8 | 17.7 | 0.00 | 0.00 | 0.00 | 52 | 1013.4 |
| 20260905022036 | 23 | 317 | 6.4 | 17.7 | 0.00 | 0.00 | 0.00 | 52 | 1013.5 |
| 20260905021600 | 24 | 294 | 4.8 | 12.9 | 0.00 | 0.00 | 0.00 | 51 | 1013.6 |
| 20260905021035 | 24 | 305 | 6.4 | 12.9 | 0.00 | 0.00 | 0.00 | 52 | 1013.7 |
| 20260905020537 | 23 | 360 | 3.2 | 8.0 | 0.00 | 0.00 | 0.00 | 52 | 1013.5 |
| 20260905020058 | 23 | 320 | 3.2 | 6.4 | 0.00 | 0.00 | 0.00 | 52 | 1013.5 |
| 20260905015535 | 23 | 323 | 3.2 | 6.4 | 0.00 | 0.00 | 0.00 | 52 | 1013.4 |
| 20260905015035 | 24 | 312 | 1.6 | 6.4 | 0.00 | 0.00 | 0.00 | 50 | 1013.3 |
| 20260905014549 | 24 | 292 | 3.2 | 8.0 | 0.00 | 0.00 | 0.00 | 49 | 1013.3 |
| 20260905014038 | 24 | 269 | 3.2 | 9.7 | 0.00 | 0.00 | 0.00 | 49 | 1013.4 |
| 20260905013535 | 24 | 275 | 3.2 | 9.7 | 0.00 | 0.00 | 0.00 | 50 | 1013.4 |
| 20260905013056 | 24 | 286 | 3.2 | 9.7 | 0.00 | 0.00 | 0.00 | 50 | 1013.5 |
| 20260905012536 | 23 | 293 | 1.6 | 6.4 | 0.00 | 0.00 | 0.00 | 51 | 1013.5 |
| 20260905012037 | 23 | 349 | 1.6 | 6.4 | 0.00 | 0.00 | 0.00 | 51 | 1013.4 |
| 20260905011604 | 24 | 291 | 1.6 | 8.0 | 0.00 | 0.00 | 0.00 | 50 | 1013.4 |
| 20260905011035 | 24 | 335 | 1.6 | 8.0 | 0.00 | 0.00 | 0.00 | 50 | 1013.4 |
| 20260905010535 | 24 | 286 | 1.6 | 8.0 | 0.00 | 0.00 | 0.00 | 50 | 1013.4 |
| 20260905010104 | 24 | 276 | 1.6 | 9.7 | 0.00 | 0.00 | 0.00 | 51 | 1013.4 |
| 20260905005536 | 23 | 266 | 3.2 | 9.7 | 0.00 | 0.00 | 0.00 | 52 | 1013.4 |
| 20260905005035 | 23 | 304 | 1.6 | 6.4 | 0.00 | 0.00 | 0.00 | 54 | 1013.4 |
| 20260905004602 | 23 | 294 | 1.6 | 6.4 | 0.00 | 0.00 | 0.00 | 54 | 1013.4 |
| 20260905004036 | 23 | 327 | 3.2 | 4.8 | 0.00 | 0.00 | 0.00 | 54 | 1013.3 |
| 20260905003536 | 23 | 0 | 1.6 | 6.4 | 0.00 | 0.00 | 0.00 | 53 | 1013.3 |
| 20260905003059 | 23 | 286 | 3.2 | 6.4 | 0.00 | 0.00 | 0.00 | 53 | 1013.3 |
| 20260905002536 | 22 | 288 | 1.6 | 3.2 | 0.00 | 0.00 | 0.00 | 56 | 1013.2 |
| 20260905002035 | 22 | 288 | 0.0 | 4.8 | 0.00 | 0.00 | 0.00 | 56 | 1013.2 |
| 20260905001604 | 23 | 293 | 0.0 | 4.8 | 0.00 | 0.00 | 0.00 | 55 | 1013.1 |
| 20260905001035 | 22 | 294 | 1.6 | 4.8 | 0.00 | 0.00 | 0.00 | 55 | 1013.1 |
| 20260905000535 | 22 | 298 | 1.6 | 4.8 | 0.00 | 0.00 | 0.00 | 56 | 1013.0 |
| 20260905000113 | 22 | 299 | 1.6 | 6.4 | 0.00 | 0.00 | 0.00 | 57 | 1013.2 |
| 20260904235539 | 21 | 263 | 1.6 | 6.4 | 0.00 | 0.00 | 0.00 | 60 | 1013.1 |
| 20260904235035 | 21 | 313 | 1.6 | 3.2 | 0.00 | 0.00 | 0.00 | 64 | 1013.1 |
| 20260904234600 | 20 | 307 | 0.0 | 0.0 | 0.00 | 0.00 | 0.00 | 66 | 1013.1 |
| 20260904234035 | 20 | 0 | 0.0 | 0.0 | 0.00 | 0.00 | 0.00 | 67 | 1013.1 |
| 20260904233535 | 20 | 0 | 0.0 | 0.0 | 0.00 | 0.00 | 0.00 | 66 | 1013.1 |
| 20260904233119 | 20 | 0 | 0.0 | 0.0 | 0.00 | 0.00 | 0.00 | 66 | 1013.1 |
| 20260904232534 | 20 | 0 | 0.0 | 0.0 | 0.00 | 0.00 | 0.00 | 65 | 1013.1 |
| 20260904232036 | 20 | 0 | 0.0 | 0.0 | 0.00 | 0.00 | 0.00 | 65 | 1013.1 |
| 20260904231606 | 20 | 0 | 0.0 | 0.0 | 0.00 | 0.00 | 0.00 | 65 | 1013.1 |
| 20260904231035 | 20 | 0 | 0.0 | 0.0 | 0.00 | 0.00 | 0.00 | 65 | 1013.0 |
| 20260904230535 | 20 | 0 | 0.0 | 0.0 | 0.00 | 0.00 | 0.00 | 65 | 1013.0 |
| 20260904230100 | 20 | 0 | 0.0 | 0.0 | 0.00 | 0.00 | 0.00 | 65 | 1013.0 |
| 20260904225534 | 20 | 0 | 0.0 | 0.0 | 0.00 | 0.00 | 0.00 | 65 | 1012.9 |
| 20260904225035 | 20 | 0 | 0.0 | 0.0 | 0.00 | 0.00 | 0.00 | 65 | 1012.9 |
| 20260904224607 | 21 | 0 | 0.0 | 0.0 | 0.00 | 0.00 | 0.00 | 64 | 1012.8 |
| 20260904224037 | 21 | 0 | 0.0 | 0.0 | 0.00 | 0.00 | 0.00 | 64 | 1012.7 |